User: anonymous   Login
Location: Unspecified
(0.0000°N, 0.0000°E)
Time: 20:03:21
(UTC+00:00)
Language:

MSX - Orbit

View from above orbital plane
View from above orbital plane
View from above satellite
View from above satellite

Ground track
Ground track

The orbit data is extracted from the following two-line orbital elements,

1 23851U 96024A   19082.92893241 -.00000032 +00000-0 +67752-5 0  9996
2 23851 098.7189 064.4321 0007150 347.6622 012.4366 13.98072512169114
Epoch (UTC): 23 March 2019 22:17:39
Eccentricity: 0.0007150
inclination: 98.7189°
perigee height: 895 km
apogee height: 905 km
right ascension of ascending node: 64.4321°
argument of perigee: 347.6622°
revolutions per day: 13.98072512
mean anomaly at epoch: 12.4366°
orbit number at epoch: 16911

The dashed part of the orbit path shows where the satellite is in the earth's shadow,  

DLR